Estació municipal de Monistrol de Calders (Moianès, P.N.de Sant Llorenç del Munt i l'Obac)

Consulta les dades en temps real de l'estació municipal de Monistrol de Calders





Hora UTC 16:25
Temperatura 30.7 ºC
Humitat 51.0 %
Pressió 1018.0 hPa
Pluja 0.0 mm
Velocitat vent 16.1 km/h
Direcció vent SSE

Webcam

Dades diàries 2026-09-03



Hora UTC (hivern +1h; estiu +2h)
Temperatura (ºC) Humitat (%) Pressió (hPa) Velocitat vent (km/h) Precipitació (mm)
Hora UTC Aire Humitat Pressió Vel. Dir. Vel. Max Dir. Intent. màx 5 min.
00:05 17.6 82.0 1020.8 1.6 ESE 1.6 0.0
00:10 17.6 82.0 1020.8 3.2 SE 4.8 0.0
00:15 17.4 82.0 1020.8 3.2 SSE 11.3 0.0
00:20 17.4 82.0 1020.8 4.8 SE 11.3 0.0
00:25 17.3 82.0 1020.8 4.8 SSE 8.0 0.0
00:30 17.3 82.0 1020.9 3.2 SE 8.0 0.0
00:35 17.1 83.0 1020.8 3.2 SE 8.0 0.0
00:40 17.1 83.0 1020.8 6.4 SSE 9.7 0.0
00:45 17.1 83.0 1020.7 0.0 S 8.0 0.0
00:50 17.0 83.0 1020.8 3.2 S 8.0 0.0
00:55 16.9 83.0 1020.7 0.0 SSE 8.0 0.0
01:00 16.9 84.0 1020.6 3.2 SE 4.8 0.0
01:05 16.9 83.0 1020.6 3.2 SSE 4.8 0.0
01:10 16.8 83.0 1020.7 1.6 SSE 4.8 0.0
01:15 16.8 84.0 1020.7 3.2 SSE 4.8 0.0
01:20 16.7 84.0 1020.7 0.0 SSE 4.8 0.0
01:25 16.7 84.0 1020.7 3.2 SE 4.8 0.0
01:30 16.7 84.0 1020.7 1.6 SE 4.8 0.0
01:35 16.6 84.0 1020.7 4.8 S 4.8 0.0
01:40 16.6 84.0 1020.6 1.6 SSE 8.0 0.0
01:45 16.4 84.0 1020.7 1.6 SE 8.0 0.0
01:50 16.3 84.0 1020.6 3.2 SSE 8.0 0.0
01:55 16.3 84.0 1020.6 1.6 SSE 4.8 0.0
02:00 16.3 84.0 1020.6 1.6 SSE 8.0 0.0
02:05 16.2 85.0 1020.6 1.6 SSE 8.0 0.0
02:10 16.2 85.0 1020.5 1.6 SE 4.8 0.0
02:15 16.1 85.0 1020.6 1.6 SSE 8.0 0.0
02:20 16.1 85.0 1020.5 1.6 SSE 8.0 0.0
02:25 16.1 85.0 1020.6 1.6 SSE 3.2 0.0
02:30 16.1 85.0 1020.5 1.6 SE 4.8 0.0
02:35 16.1 85.0 1020.5 3.2 SSE 4.8 0.0
02:40 16.0 86.0 1020.6 6.4 SSE 6.4 0.0
02:45 15.9 86.0 1020.6 1.6 SE 6.4 0.0
02:50 15.9 86.0 1020.6 3.2 SE 6.4 0.0
02:55 15.8 86.0 1020.6 1.6 ESE 4.8 0.0
03:00 15.8 86.0 1020.6 0.0 SE 4.8 0.0
03:05 15.8 86.0 1020.6 1.6 SE 3.2 0.0
03:10 15.7 86.0 1020.6 3.2 SE 4.8 0.0
03:15 15.6 86.0 1020.5 1.6 SE 4.8 0.0
03:20 15.6 87.0 1020.5 0.0 ESE 4.8 0.0
03:25 15.6 87.0 1020.5 1.6 ESE 4.8 0.0
03:30 15.6 87.0 1020.5 1.6 SSE 4.8 0.0
03:35 15.6 87.0 1020.4 3.2 SSE 8.0 0.0
03:40 15.6 87.0 1020.3 3.2 SSE 6.4 0.0
03:45 15.6 88.0 1020.3 0.0 SE 8.0 0.0
03:50 15.6 88.0 1020.3 1.6 ESE 6.4 0.0
03:55 15.6 87.0 1020.3 0.0 SE 4.8 0.0
04:00 15.6 87.0 1020.2 1.6 SE 3.2 0.0
04:05 15.5 88.0 1020.1 1.6 SSE 4.8 0.0
04:10 15.5 88.0 1020.1 1.6 ESE 4.8 0.0
04:15 15.5 88.0 1020.1 1.6 SSE 4.8 0.0
04:20 15.4 88.0 1020.0 3.2 SSE 3.2 0.0
04:25 15.4 88.0 1020.1 0.0 SE 4.8 0.0
04:30 15.4 88.0 1020.1 0.0 SE 4.8 0.0
04:35 15.3 87.0 1020.1 4.8 SE 4.8 0.0
04:40 15.2 88.0 1020.2 0.0 ESE 4.8 0.0
04:45 15.2 88.0 1020.2 0.0 ESE 4.8 0.0
04:50 15.2 88.0 1020.2 0.0 ESE 3.2 0.0
04:55 15.2 88.0 1020.2 3.2 ESE 4.8 0.0
05:00 15.2 89.0 1020.3 0.0 SSE 4.8 0.0
05:05 15.2 88.0 1020.3 0.0 SSE 3.2 0.0
05:10 15.1 88.0 1020.4 0.0 SE 3.2 0.0
05:15 15.1 88.0 1020.4 1.6 SE 4.8 0.0
05:20 15.1 88.0 1020.4 4.8 SE 4.8 0.0
05:25 15.0 89.0 1020.5 1.6 SE 4.8 0.0
05:30 15.1 89.0 1020.6 3.2 SE 4.8 0.0
05:35 14.9 89.0 1020.7 3.2 SE 4.8 0.0
05:40 14.9 89.0 1020.7 1.6 SE 4.8 0.0
05:45 14.9 89.0 1020.7 1.6 SE 4.8 0.0
05:50 15.1 89.0 1020.7 1.6 SE 6.4 0.0
05:55 15.1 89.0 1020.8 0.0 SE 6.4 0.0
06:00 15.1 89.0 1020.9 0.0 SE 3.2 0.0
06:05 15.2 89.0 1020.8 1.6 SE 3.2 0.0
06:10 15.2 88.0 1020.9 1.6 SE 4.8 0.0
06:15 15.5 89.0 1021.0 1.6 SE 4.8 0.0
06:20 15.8 88.0 1021.0 0.0 SE 3.2 0.0
06:25 16.1 87.0 1020.9 3.2 SE 4.8 0.0
06:30 16.3 86.0 1020.9 3.2 SE 4.8 0.0
06:35 16.6 86.0 1020.9 3.2 SE 4.8 0.0
06:40 16.9 86.0 1020.9 3.2 SE 4.8 0.0
06:45 17.3 85.0 1020.9 1.6 SE 4.8 0.0
06:50 17.7 85.0 1020.9 0.0 ESE 3.2 0.0
06:55 18.0 83.0 1020.9 1.6 SSE 3.2 0.0
07:00 18.2 82.0 1020.8 1.6 SSE 3.2 0.0
07:05 18.4 82.0 1020.7 3.2 SE 4.8 0.0
07:10 18.7 82.0 1020.7 1.6 SE 4.8 0.0
07:15 19.6 80.0 1020.7 1.6 E 3.2 0.0
07:20 20.3 78.0 1020.7 0.0 ESE 3.2 0.0
07:25 20.9 75.0 1020.6 0.0 ESE 3.2 0.0
07:30 21.5 73.0 1020.7 1.6 E 3.2 0.0
07:35 22.2 71.0 1020.6 0.0 NNE 3.2 0.0
07:40 22.4 70.0 1020.5 0.0 NNE 3.2 0.0
07:45 22.7 67.0 1020.5 3.2 NE 4.8 0.0
07:50 22.9 66.0 1020.5 3.2 NE 4.8 0.0
07:55 23.3 65.0 1020.5 1.6 ENE 3.2 0.0
08:00 23.7 64.0 1020.5 1.6 NW 3.2 0.0
08:05 24.1 64.0 1020.4 0.0 NNE 3.2 0.0
08:10 24.5 64.0 1020.4 1.6 NNE 1.6 0.0
08:15 24.9 63.0 1020.4 0.0 NW 3.2 0.0
08:20 25.4 62.0 1020.4 0.0 NE 3.2 0.0
08:25 25.8 60.0 1020.4 0.0 NNW 4.8 0.0
08:30 26.2 59.0 1020.3 1.6 SE 4.8 0.0
08:35 26.6 58.0 1020.4 0.0 E 3.2 0.0
08:40 27.1 56.0 1020.4 1.6 NNE 3.2 0.0
08:45 27.6 55.0 1020.5 1.6 NW 3.2 0.0
08:50 28.1 53.0 1020.4 3.2 NNW 4.8 0.0
08:55 28.4 51.0 1020.4 4.8 ENE 9.7 0.0
09:00 28.7 51.0 1020.4 4.8 NE 9.7 0.0
09:05 29.1 51.0 1020.4 0.0 NNW 6.4 0.0
09:10 29.3 49.0 1020.4 3.2 WNW 8.0 0.0
09:15 29.6 49.0 1020.5 1.6 WSW 8.0 0.0
09:20 29.8 47.0 1020.5 3.2 WSW 6.4 0.0
09:25 30.0 46.0 1020.4 1.6 NW 6.4 0.0
09:30 30.4 45.0 1020.5 1.6 N 12.9 0.0
09:35 30.5 45.0 1020.5 1.6 W 12.9 0.0
09:40 30.6 45.0 1020.5 3.2 NW 6.4 0.0
09:45 30.9 43.0 1020.5 4.8 WNW 16.1 0.0
09:50 31.1 43.0 1020.4 4.8 WNW 16.1 0.0
09:55 31.3 42.0 1020.5 6.4 NE 12.9 0.0
10:00 30.7 43.0 1020.4 1.6 SW 12.9 0.0
10:05 30.6 42.0 1020.3 6.4 E 11.3 0.0
10:10 30.6 40.0 1020.2 4.8 W 11.3 0.0
10:15 30.8 41.0 1020.2 4.8 WSW 14.5 0.0
10:20 31.1 40.0 1020.3 3.2 W 12.9 0.0
10:25 31.3 41.0 1020.0 3.2 NW 12.9 0.0
10:30 31.9 39.0 1020.0 11.3 WNW 12.9 0.0
10:35 32.3 39.0 1020.0 6.4 W 12.9 0.0
10:40 32.4 37.0 1020.0 3.2 SSW 14.5 0.0
10:45 32.4 37.0 1019.9 12.9 S 17.7 0.0
10:50 32.2 37.0 1019.8 4.8 SSE 17.7 0.0
10:55 31.9 37.0 1019.8 0.0 NE 14.5 0.0
11:00 31.8 37.0 1019.6 3.2 ENE 19.3 0.0
11:05 31.9 37.0 1019.6 6.4 S 19.3 0.0
11:10 31.7 38.0 1019.5 3.2 SSW 17.7 0.0
11:15 32.0 37.0 1019.5 4.8 WSW 19.3 0.0
11:20 32.1 36.0 1019.5 9.7 E 19.3 0.0
11:25 31.9 36.0 1019.5 4.8 SW 14.5 0.0
11:30 32.4 37.0 1019.4 1.6 SE 14.5 0.0
11:35 32.3 36.0 1019.3 12.9 ENE 17.7 0.0
11:40 31.9 37.0 1019.3 6.4 E 20.9 0.0
11:45 31.9 38.0 1019.2 6.4 SE 20.9 0.0
11:50 32.4 37.0 1019.2 9.7 E 16.1 0.0
11:55 32.1 37.0 1019.1 3.2 SE 20.9 0.0
12:00 32.6 37.0 1019.1 11.3 S 20.9 0.0
12:05 32.6 37.0 1019.1 4.8 SSW 17.7 0.0
12:10 32.7 37.0 1019.1 11.3 SSW 17.7 0.0
12:15 32.6 36.0 1019.0 12.9 SSW 17.7 0.0
12:20 32.6 37.0 1019.0 8.0 SSW 17.7 0.0
12:25 32.7 37.0 1018.9 3.2 E 16.1 0.0
12:30 32.6 37.0 1019.0 8.0 S 22.5 0.0
12:35 32.4 37.0 1018.8 4.8 SSE 22.5 0.0
12:40 32.5 37.0 1018.8 25.7 SSE 25.7 0.0
12:45 32.6 37.0 1018.9 17.7 SSW 24.1 0.0
12:50 32.6 37.0 1018.8 12.9 E 20.9 0.0
12:55 32.6 38.0 1018.8 6.4 SE 22.5 0.0
13:00 32.9 37.0 1018.8 17.7 SSE 22.5 0.0
13:05 33.0 37.0 1018.8 12.9 S 19.3 0.0
13:10 32.8 38.0 1018.7 14.5 SE 27.4 0.0
13:15 32.6 39.0 1018.7 14.5 ESE 29.0 0.0
13:20 32.6 39.0 1018.7 9.7 SSW 27.4 0.0
13:25 32.4 40.0 1018.8 24.1 S 30.6 0.0
13:30 31.9 41.0 1018.8 19.3 SSE 32.2 0.0
13:35 31.7 42.0 1018.7 14.5 ESE 38.6 0.0
13:40 31.7 42.0 1018.7 22.5 E 30.6 0.0
13:45 31.4 43.0 1018.7 17.7 ENE 35.4 0.0
13:50 31.6 44.0 1018.7 0.0 SE 35.4 0.0
13:55 31.9 43.0 1018.5 22.5 S 22.5 0.0
14:00 31.7 45.0 1018.5 12.9 SSW 25.7 0.0
14:05 31.6 45.0 1018.4 12.9 ENE 25.7 0.0
14:10 31.7 45.0 1018.4 6.4 SE 29.0 0.0
14:15 32.0 45.0 1018.2 19.3 E 29.0 0.0
14:20 31.8 46.0 1018.3 12.9 SSE 32.2 0.0
14:25 31.9 45.0 1018.3 4.8 ESE 32.2 0.0
14:30 31.9 45.0 1018.3 6.4 ESE 29.0 0.0
14:35 32.1 45.0 1018.2 12.9 SSE 27.4 0.0
14:40 32.1 45.0 1018.2 11.3 SSE 30.6 0.0
14:45 32.1 45.0 1018.3 6.4 ENE 30.6 0.0
14:50 32.3 45.0 1018.2 17.7 ENE 25.7 0.0
14:55 31.7 47.0 1018.1 12.9 E 32.2 0.0
15:00 31.6 46.0 1018.1 14.5 E 32.2 0.0
15:05 31.9 46.0 1018.1 11.3 E 29.0 0.0
15:10 32.1 45.0 1017.8 20.9 E 27.4 0.0
15:15 32.2 45.0 1017.8 17.7 SSE 27.4 0.0
15:20 32.4 44.0 1017.8 14.5 ESE 25.7 0.0
15:25 31.9 46.0 1017.9 11.3 E 35.4 0.0
15:30 31.7 46.0 1017.9 22.5 E 35.4 0.0
15:35 31.6 47.0 1017.9 14.5 SSW 33.8 0.0
15:40 31.7 47.0 1018.0 16.1 SSE 25.7 0.0
15:45 31.8 46.0 1017.9 16.1 E 24.1 0.0
15:50 31.6 47.0 1018.0 12.9 SE 27.4 0.0
15:55 31.6 47.0 1018.0 9.7 S 27.4 0.0
16:00 31.4 47.0 1017.9 16.1 SSE 22.5 0.0
16:05 31.3 48.0 1017.9 4.8 SE 22.5 0.0
16:10 31.2 49.0 1017.9 11.3 ESE 20.9 0.0
16:15 30.8 50.0 1017.9 22.5 E 30.6 0.0
16:20 30.7 50.0 1018.0 20.9 SE 30.6 0.0
16:25 30.7 51.0 1018.0 16.1 SSE 20.9 0.0
Màxima 33.0 89.0 1021.0 25.7 SSE 38.6 0.0
Mínima 14.9 36.0 1017.8
Total 0.0